[Iaude] MPEC E74: 2024 EU1 [a=1.07,e=0.04,i=5.3,H=25.1]
    mpec at cfa.harvard.edu 
    mpec at cfa.harvard.edu
       
    Wed Mar  6 08:07:24 EST 2024
    
    
  
M.P.E.C. 2024-E74                                 Issued 2024 March 6, 13:05 UT
     The Minor Planet Electronic Circulars contain information on unusual
         minor planets, routine data on comets and natural satellites,
         and occasional editorial announcements.  They are published
    on behalf of Division F of the International Astronomical Union by the
          Minor Planet Center, Smithsonian Astrophysical Observatory,
                          Cambridge, MA 02138, U.S.A.
			  
             Prepared using the Tamkin Foundation Computer Network
                              MPC at CFA.HARVARD.EDU
            URL https://www.minorplanetcenter.net/    ISSN 1523-6714
                                    2024 EU1                                    
Observations:
     K24E01U  C2024 02 27.36116509 23 09.336+02 13 34.20         19.67GVEE074F51
     K24E01U  C2024 02 27.36387609 23 09.245+02 13 47.30         20.45GVEE074F51
     K24E01U*1C2024 03 05.18272009 26 56.587+11 05 29.83         20.54GVEE074G96
     K24E01U 1C2024 03 05.18791509 26 56.616+11 05 52.33         20.98GVEE074G96
     K24E01U 1C2024 03 05.19830609 26 56.706+11 06 37.33         20.86GVEE074G96
     K24E01U  C2024 03 05.21804709 26 56.318+11 08 00.15         20.3 GVEE074H01
     K24E01U  C2024 03 05.22361409 26 56.334+11 08 24.21         20.3 GVEE074H01
     K24E01U  C2024 03 05.23261309 26 56.362+11 09 02.83         20.6 GVEE074H01
     K24E01U  C2024 03 05.23894909 26 56.378+11 09 30.11         20.8 GVEE074H01
     K24E01U KC2024 03 05.29406209 26 56.954+11 13 28.16         20.55GVEE074I52
     K24E01U KC2024 03 05.29537109 26 56.965+11 13 34.00         20.43GVEE074I52
     K24E01U KC2024 03 05.29668109 26 56.958+11 13 39.54         20.49GVEE074I52
     K24E01U KC2024 03 05.29799209 26 56.965+11 13 45.19         20.42GVEE074I52
     K24E01U KC2024 03 05.83373909 27 25.884+11 51 06.23         20.1 GVEE074J95
     K24E01U KC2024 03 05.84222609 27 26.074+11 51 43.42         20.7 GVEE074J95
     K24E01U KB2024 03 05.87929 09 27 27.185+11 54 39.38         20.6 GXEE074J57
     K24E01U KB2024 03 05.89494 09 27 27.322+11 55 46.16         20.7 GXEE074J57
     K24E01U KC2024 03 06.10269609 27 39.73 +12 10 20.3                XEE074858
     K24E01U KC2024 03 06.10933309 27 39.89 +12 10 48.4          20.2 GXEE074858
     K24E01U KC2024 03 06.11596709 27 39.99 +12 11 16.9          20.2 GXEE074858
Observer details:
858 Tebbutt Observatory, Edgewood.  Observer F. B. Zoltowski.  0.51-m f/8.1
    Schmidt-Cassegrain + CCD.
F51 Pan-STARRS 1, Haleakala.  Observers J. Herman, T. Lowe, P. Minguez, A.
    Schultz, I. Smith.  Measurers K. Chambers, T. de Boer, J. Fairlamb, H.
    Gao, M. Huber, C.-C. Lin, E. Magnier, Y. Ramanjooloo, R. Wainscoat, R.
    Weryk.  1.8-m Ritchey-Chretien + CCD.
G96 Mt. Lemmon Survey.  Observer G. J. Leonard.  Measurers T. Beuden, V. F.
    Carvajal, D. Fay, J. B. Fazekas, D. C. Fuls, A. R. Gibbs, A. D. Grauer, H.
    Groeller, J. K. Hogan, R. A. Kowalski, S. M. Larson, G. J. Leonard, D.
    Rankin, R. L. Seaman, F. C. Shelly, K. W. Wierzchos.  1.5-m reflector +
    10K CCD.
H01 Magdalena Ridge Observatory, Socorro.  Observers W. H. Ryan, E. V. Ryan.
    Measurer W. H. Ryan.  2.4-m f/8.9 Ritchey-Chretien + CCD.
I52 Steward Observatory, Mt. Lemmon Station.  Observer J. K. Hogan.  Measurers
    T. Beuden, V. F. Carvajal, D. Fay, J. B. Fazekas, D. C. Fuls, A. R. Gibbs,
    A. D. Grauer, H. Groeller, J. K. Hogan, R. A. Kowalski, S. M. Larson, G.
    J. Leonard, D. Rankin, R. L. Seaman, F. C. Shelly, K. W. Wierzchos.  1.0-m
    prime focus + CCD.
J57 Centro Astronomico Alto Turia, Valencia.  Observer A. Fornas.  Measurers
    A. Fornas, G. Fornas, E. Arce, V. Mas.  0.43-m f/6.8 Reflector CDK + CMO.
J95 Great Shefford.  Observer P. Birtwhistle.  0.41-m f/6.3 Schmidt-Cassegrain
    + CCD.
Orbital elements:
2024 EU1                                                 Earth MOID = 0.0554 AU
Epoch 2024 Mar. 31.0 TT = JDT 2460400.5                 Veres                   
M 105.18607              (2000.0)            P               Q                  
n   0.89440847     Peri.  270.01312     +0.24081621     -0.97031726             
a   1.0668715      Node   165.99203     +0.92295297     +0.22187138             
e   0.0432429      Incl.    5.25751     +0.30027550     +0.09621589             
P   1.10           H   25.13          G   0.15           U   7                  
Residuals in seconds of arc
240227 F51  0.2+  0.2+    240305 H01  0.0   0.0     240305 J95  0.1+  0.4+
240227 F51  0.1-  0.2-    240305 H01  0.1-  0.1+    240305 J57  0.1+  0.1+
240305 G96  0.2-  0.0     240305 I52  0.1+  0.2-    240305 J57  0.3-  0.5+
240305 G96  0.2-  0.1-    240305 I52  0.2+  0.1+    240306 858  0.4-  0.7+
240305 G96  0.5+  0.1-    240305 I52  0.0   0.0     240306 858  0.1+  0.4+
240305 H01  0.1-  0.0     240305 I52  0.0   0.1+    240306 858  0.1-  0.7+
240305 H01  0.1-  0.1+    240305 J95  0.0   0.6-
Ephemeris:
2024 EU1                 a,e,i = 1.07, 0.04, 5                   q = 1.0207
Date    TT    R. A. (2000) Decl.     Delta      r    Elong.  Phase     V
2024 02 05    09 23 08.3 -26 15 34   0.07503 1.0423   137.4    39.8    21.2
...
2024 02 20    09 21 27.5 -08 12 02   0.06892 1.0523   157.0    21.5    20.5
...
2024 02 28    09 23 23.3 +03 07 02   0.07169 1.0580   160.1    18.6    20.5
...
2024 03 05    09 26 46.1 +10 53 02   0.07683 1.0623   155.7    22.6    20.8
2024 03 06    09 27 30.4 +12 03 57   0.07793 1.0631   154.7    23.5    20.8
2024 03 07    09 28 17.8 +13 12 37   0.07910 1.0638   153.6    24.5    20.9
...
2024 03 13    09 34 11.6 +19 14 13   0.08738 1.0681   146.8    30.7    21.3
...
2024 03 21    09 45 04.2 +25 01 37   0.1012  1.0738   138.4    38.0    21.8
...
2024 04 05    10 12 04.2 +30 22 19   0.1323  1.0841   126.4    48.0    22.7
M. P. C. Staff               (C) Copyright 2024 MPC           M.P.E.C. 2024-E74
    
    
More information about the Iaude
mailing list